RH
100 99 99 89 82 81 89 92 91 82 73 69 69 74 77 75 75 88 95 93 97 99 87 75 76 85 76 78 84 72 78 74 86 94 99 94 84 71 77 77 87 61 79 81 74 84 88 56 52 55 44 38 42 50
99 100 99 87 85 89 94 100 98 84 84 70 66 63 60 62 72 82 94 89 93 98 94 83 81 79 70 63 75 75 79 73 86 98 98 94 85 78 70 85 68 89 63 67 65 58 56 54 45 43 43 40 48 52
98 100 99 98 97 96 98 98 98 88 81 74 74 69 68 71 66 81 100 88 90 94 88 91 84 68 80 77 74 94 86 76 81 75 90 94 99 75 74 71 69 56 56 68 76 61 52 53 47 43 47 42 47 51
98 99 100 100 100 98 100 91 79 76 75 72 70 68 70 72 78 81 100 91 95 90 98 79 58 88 73 79 83 85 80 76 79 88 96 96 97 86 78 73 88 75 75 62 70 61 55 52 43 44 45 46 49 49
99 100 99 100 100 99 93 76 70 68 66 70 75 72 69 78 80 85 89 98 97 92 95 93 76 67 72 79 86 84 88 94 95 96 96 95 88 88 88 79 75 77 83 76 76 62 54 49 53 48 50 51 48 46
99 100 99 99 100 98 83 77 71 74 76 74 75 81 84 79 79 95 99 66 72 100 98 97 80 79 68 64 72 78 80 86 94 95 94 90 77 97 98 95 61 48 55 54 73 70 65 59 43 46 45 48 46 42
98 100 87 88 96 80 74 69 69 72 74 75 77 80 82 78 86 94 86 87 99 100 100 99 98 90 84 75 80 81 77 92 95 93 95 88 90 85 89 94 62 55 52 58 64 71 73 70 54 44 46 48 49 47
91 99 82 75 76 76 74 72 73 71 73 80 82 81 78 78 89 99 85 68 68 98 100 99 95 96 92 99 100 98 98 97 96 98 98 94 85 89 95 67 64 58 59 60 61 56 53 56 45 46 44 43 45 49
86 92 83 78 75 81 77 74 73 69 80 80 75 80 92 91 99 78 70 78 89 98 99 99 97 93 89 98 98 99 98 100 97 99 98 99 94 99 93 73 63 64 65 64 57 58 49 48 49 46 43 44 52 62
87 90 86 79 76 74 72 75 75 68 79 78 89 95 96 88 86 80 84 100 100 98 98 97 91 92 85 85 98 100 100 100 100 96 98 100 97 85 83 70 67 64 65 56 66 65 56 53 49 47 44 45 51 56
88 92 93 83 76 76 72 69 75 66 89 96 100 98 86 88 97 100 99 97 96 99 98 96 80 86 90 88 95 99 100 100 100 98 100 100 98 91 76 77 76 67 62 60 54 54 46 45 47 54 63 59 58 57
92 90 95 96 90 87 76 68 73 94 96 98 98 82 86 100 99 99 97 98 99 94 94 98 86 89 94 98 100 99 100 100 98 97 100 99 89 73 76 69 77 77 75 66 59 63 59 54 50 54 64 66 61 63
95 93 94 94 89 86 77 75 72 81 86 97 99 99 99 96 98 98 93 98 98 97 96 97 98 98 99 98 100 100 100 97 91 99 95 90 73 71 75 76 79 74 75 78 80 73 85 84 73 65 66 63 65 70
96 95 94 94 84 80 81 89 84 84 99 99 98 99 95 97 95 90 89 92 98 99 98 97 98 99 98 100 98 95 95 94 99 99 92 88 66 71 70 71 62 68 62 65 76 85 79 73 76 67 65 70 68 73
98 93 92 95 87 81 87 98 100 99 100 99 99 96 96 86 90 88 91 96 88 86 97 98 99 100 100 100 99 96 99 99 93 88 86 72 63 70 76 68 66 68 74 70 63 65 77 73 72 81 71 62 63 70
99 100 99 84 79 92 98 100 100 100 100 100 99 96 88 97 95 96 94 95 95 98 97 100 100 99 100 99 99 97 92 84 72 82 78 71 65 76 78 70 67 67 66 68 68 66 66 72 70 76 69 63 59 54
99 99 88 93 86 92 99 99 100 99 99 99 94 87 85 93 96 95 93 97 91 99 99 99 99 96 99 95 82 86 89 82 73 73 76 69 73 80 78 73 74 68 68 66 65 67 73 71 67 65 77 79 64 62
99 88 81 98 99 100 100 100 99 99 97 94 99 95 93 92 97 96 96 97 95 99 100 99 99 98 88 76 73 80 84 78 78 77 72 71 75 80 73 70 70 66 65 65 67 67 65 62 63 73 78 80 85 92
98 85 83 92 100 99 99 99 99 99 94 89 87 92 94 94 93 88 92 94 94 96 100 100 99 94 75 77 70 68 75 75 78 88 88 81 80 80 79 74 71 70 70 67 62 64 59 52 61 67 72 68 81 80
99 97 100 100 99 99 100 99 96 96 90 92 93 99 96 94 94 95 96 98 97 98 100 100 95 81 72 70 75 73 75 82 85 87 92 91 87 77 75 74 76 71 73 73 72 66 70 71 58 54 56 58 67 71
100 98 100 100 100 100 99 98 94 97 94 96 79 80 94 98 100 99 98 95 99 98 98 96 86 82 85 88 88 80 85 79 78 78 84 91 87 79 79 73 68 65 71 72 76 87 71 74 67 60 56 58 57 60
100 100 100 100 98 100 100 96 89 95 95 96 97 94 93 98 98 96 98 99 98 98 98 90 89 90 90 80 84 82 81 84 84 83 78 83 78 76 76 75 68 75 73 77 71 79 76 66 61 58 51 62 62 61
99 99 99 97 99 98 94 96 97 85 99 98 91 90 88 93 94 97 98 98 98 93 88 89 85 85 87 83 80 82 74 74 79 83 82 88 84 79 80 78 69 77 83 81 63 68 71 65 60 59 64 67 69 87
100 100 99 99 93 100 97 94 93 89 77 80 88 91 88 87 97 100 98 98 96 91 86 78 80 81 79 82 91 91 85 73 80 85 75 72 80 90 75 74 67 63 61 68 64 67 67 68 64 63 72 93 98 97
97 98 91 96 90 86 96 95 90 90 90 87 94 95 85 94 99 99 97 96 99 95 89 84 78 77 84 90 88 88 73 65 75 85 90 79 86 83 87 85 80 74 66 60 74 68 80 81 90 100 98 98 98 98
96 94 95 88 89 93 94 96 98 98 97 100 96 98 99 100 100 94 97 99 99 99 96 92 83 77 85 83 78 80 84 69 66 85 89 74 71 76 88 88 95 97 73 58 57 76 98 100 99 98 98 98 97 98
98 98 92 85 87 91 98 94 91 92 97 99 97 99 98 96 94 95 99 99 99 99 100 98 79 77 86 91 97 94 71 65 80 97 99 87 67 61 57 74 91 98 99 97 97 96 99 99 99 99 99 98 91 94
90 91 98 97 96 84 94 96 96 93 85 89 95 98 90 83 94 99 100 100 100 100 100 100 98 92 99 100 100 100 100 100 100 100 100 99 99 100 100 99 99 100 100 100 100 100 99 98 99 96 96 91 91 87
98 94 86 99 98 94 92 87 87 89 87 90 90 98 96 97 97 98 100 100 98 94 95 97 99 100 100 100 100 99 97 93 86 88 99 99 99 100 100 100 100 100 100 100 100 99 98 98 99 97 98 98 96 97
100 91 95 98 100 95 96 96 99 99 98 98 96 94 91 96 98 99 100 100 97 99 100 100 99 93 98 96 98 100 97 83 71 79 95 99 99 100 98 100 100 99 99 98 98 98 98 98 97 96 96 99 100 100
98 98 97 95 98 98 99 99 97 96 97 98 98 96 96 98 98 99 99 100 100 100 98 99 100 96 98 99 98 99 99 100 99 97 99 99 100 100 99 99 99 99 97 99 99 98 96 97 95 98 100 100 100 100
98 97 97 97 98 99 98 97 98 98 99 98 98 99 98 98 97 98 98 99 97 97 99 99 98 100 100 100 98 95 97 97 97 97 99 100 100 100 99 98 98 98 98 99 98 98 97 95 95 96 100 100 100 100
98 98 98 97 98 98 98 95 97 97 97 97 98 98 98 98 98 98 99 100 100 100 100 98 94 94 95 96 98 97 95 94 92 93 95 99 99 99 99 100 99 98 97 95 95 93 91 90 96 98 100 100 99 98
Wind_Speed
34 40 26 23 23 23 23 23 23 24 25 24 23 22 22 23 24 24 19 23 18 3 12 13 13 16 12 10 14 5 8 6 5 8 6 9 10 15 19 26 13 32 19 20 24 24 28 8 6 23 17 5 3 8
36 32 21 21 21 23 22 26 29 25 22 22 21 20 20 21 22 21 15 19 23 14 11 16 25 34 38 39 12 8 13 14 4 2 4 5 7 6 18 22 18 17 22 18 19 22 4 9 12 11 4 4 5 7
35 20 21 22 18 25 22 23 21 20 23 22 21 19 19 19 19 22 18 13 16 6 15 17 19 44 35 44 43 13 14 14 20 15 10 9 10 6 13 17 25 25 17 13 6 10 14 10 7 6 8 15 7 7
31 15 17 16 22 22 22 21 18 21 22 20 20 20 20 18 18 18 18 18 21 6 6 13 32 25 43 40 43 45 37 31 21 12 11 10 10 8 12 12 11 7 13 19 8 3 9 13 16 14 8 6 7 10
24 11 13 14 17 22 18 19 20 20 20 20 20 19 18 17 17 18 22 24 29 13 5 8 24 43 33 28 36 43 38 24 14 13 9 14 13 13 8 6 14 8 7 14 10 10 12 16 8 7 10 10 14 15
19 10 12 12 15 14 12 16 17 17 17 17 18 17 16 16 14 9 3 16 35 35 5 7 10 17 25 32 36 28 23 17 18 9 11 11 16 6 5 5 9 19 15 17 7 4 6 7 20 14 11 14 11 14
16 11 9 14 14 17 18 15 14 14 14 15 16 15 16 17 16 9 5 6 3 8 3 4 4 6 9 11 10 15 20 10 8 17 13 8 6 13 10 5 5 11 17 15 14 14 6 8 8 13 12 9 10 9
15 12 9 11 14 15 14 13 13 12 13 14 14 13 15 16 16 20 32 31 32 12 3 3 6 4 8 4 4 4 4 5 6 3 3 5 5 6 9 18 5 6 9 12 20 18 20 9 13 14 17 16 16 14
15 13 9 9 12 13 13 13 12 11 11 10 9 10 6 8 5 6 13 16 22 11 3 3 3 4 1 3 5 3 2 3 3 4 3 3 5 7 7 12 15 7 8 10 10 11 16 14 18 17 18 17 16 11
14 14 11 10 11 13 14 13 12 10 9 6 4 4 3 6 7 6 4 3 5 5 5 6 3 10 1 3 2 4 3 3 3 4 2 3 3 3 10 9 9 8 10 15 10 9 14 13 17 18 19 18 17 15
16 15 13 12 11 13 15 15 12 7 5 4 3 4 5 3 1 3 4 5 4 3 4 5 11 11 3 7 4 5 3 1 2 2 2 3 3 6 10 10 7 7 9 9 11 9 9 20 18 15 10 10 13 14
16 17 15 14 14 15 16 17 15 12 8 9 6 4 3 2 3 4 4 3 5 6 3 3 5 6 3 3 4 4 2 1 4 1 1 3 4 4 8 9 9 8 9 14 17 17 13 13 11 16 15 12 10 15
18 19 18 17 18 16 18 18 17 16 12 12 5 3 3 5 7 5 6 4 3 3 2 3 4 3 3 3 4 3 3 4 2 1 3 4 2 1 6 5 7 7 9 14 15 14 11 8 11 8 11 16 20 20
19 20 20 19 20 19 19 18 17 12 5 4 5 6 5 5 5 5 3 2 2 3 6 6 5 3 2 3 2 3 2 1 1 2 5 2 4 8 6 6 10 8 11 12 14 15 15 14 11 15 18 26 26 18
17 18 19 21 23 19 19 17 14 15 5 3 4 6 8 5 3 3 4 3 2 4 6 5 3 3 2 4 1 1 2 2 3 5 4 1 2 8 7 6 8 9 9 9 12 14 13 15 15 12 22 27 29 27
14 14 19 24 21 20 19 19 13 9 3 3 4 3 3 2 4 1 3 2 1 6 8 3 3 3 5 3 2 5 5 5 4 4 4 3 3 6 8 7 7 9 11 12 12 14 15 15 16 18 23 26 27 27
15 6 8 14 17 21 17 12 8 5 4 4 4 3 4 3 5 3 3 3 1 2 3 5 4 5 1 1 2 4 4 3 3 3 3 2 5 6 7 9 10 12 13 14 14 14 17 24 27 22 12 13 21 19
11 11 13 14 20 13 9 9 4 4 7 4 3 3 3 4 3 4 3 2 2 1 2 2 5 3 4 4 3 4 4 3 1 3 1 3 5 7 6 11 10 13 14 15 18 19 23 18 12 8 19 22 21 18
18 20 17 18 19 6 3 5 3 3 5 2 1 2 3 3 3 3 3 3 3 3 2 3 5 3 4 4 4 2 1 1 1 2 3 4 5 7 9 10 11 12 14 15 16 11 17 21 21 22 23 23 16 16
22 23 21 25 21 5 4 3 7 3 3 3 2 3 3 3 1 2 4 3 3 1 3 4 4 3 3 3 2 2 4 3 3 4 4 4 4 8 10 10 8 15 16 20 20 24 18 16 21 25 23 23 21 16
16 24 21 25 15 11 3 4 5 4 3 3 3 3 3 1 2 2 3 2 3 3 3 5 8 4 5 5 4 2 4 3 2 3 3 4 3 8 9 14 20 18 10 9 9 6 13 10 19 20 20 15 15 13
6 13 6 8 3 6 3 4 3 3 4 3 4 3 3 3 2 3 2 3 3 4 4 3 3 5 6 1 1 3 5 7 7 7 12 6 8 9 8 8 8 8 9 9 14 9 15 22 20 17 17 14 11 8
13 5 4 3 3 4 4 4 3 5 3 4 3 3 3 3 3 1 2 3 3 4 3 3 6 4 3 5 10 9 10 8 7 6 7 6 9 12 12 14 19 10 7 7 24 24 23 20 19 18 14 11 7 5
6 3 3 4 4 3 3 3 1 3 3 4 5 4 4 4 2 2 4 3 3 3 2 3 3 1 5 6 4 4 5 12 8 10 13 11 8 6 15 17 19 19 21 23 22 23 20 17 14 12 10 9 7 6
3 2 4 3 2 3 3 3 4 4 5 5 5 3 3 2 2 3 3 2 1 3 3 3 2 1 5 4 5 5 10 14 9 9 12 21 17 13 13 18 21 17 17 22 16 16 12 10 9 9 8 7 6 6
4 5 7 8 4 4 5 4 4 6 3 3 3 0 1 1 2 4 2 3 1 2 1 2 3 9 6 4 8 7 6 17 25 7 8 10 12 10 6 6 3 6 7 10 16 14 10 8 8 8 8 8 6 2
5 6 4 3 3 3 3 2 2 2 4 5 2 2 0 1 3 1 2 3 1 2 8 10 2 9 8 7 14 18 21 22 23 16 16 17 15 14 17 12 5 9 10 11 10 11 12 10 9 6 5 3 2 3
4 5 7 6 2 2 4 4 4 6 4 3 4 4 5 5 1 2 2 4 8 13 17 14 18 22 18 18 18 21 23 27 31 30 28 25 20 19 18 19 17 13 11 9 8 7 7 4 2 2 4 6 6 5
2 3 4 3 2 2 3 4 5 2 1 3 4 2 2 1 2 2 3 3 9 12 8 7 12 19 24 25 23 21 16 14 5 6 8 4 2 8 10 13 13 11 10 10 10 10 6 3 2 1 3 4 4 6
2 1 4 3 4 3 2 1 1 1 1 2 2 2 2 3 7 12 6 3 7 5 11 9 7 12 8 9 9 15 16 12 9 6 5 4 6 12 10 10 10 10 10 9 8 7 8 7 5 4 2 1 2 3
2 2 3 2 2 1 2 1 2 2 2 3 4 3 2 2 3 19 17 14 15 14 12 7 11 12 12 8 5 5 6 16 18 18 19 19 14 11 8 6 7 7 6 6 6 6 5 4 3 3 4 5 5 7
2 2 3 3 3 3 1 2 2 2 1 1 1 2 2 2 2 3 14 10 12 8 11 10 9 9 14 15 16 19 20 17 16 15 13 11 9 6 4 5 4 3 2 2 3 4 5 5 4 4 6 6 7 10
1 1 3 3 3 3 1 3 2 2 3 2 2 1 2 2 3 1 7 10 12 13 15 17 17 16 17 18 19 18 17 15 12 8 5 4 4 4 5 5 4 3 2 2 3 3 4 5 6 7 9 11 13 16
Wind_Direction
292 297 268 249 230 226 216 208 207 213 218 217 217 217 216 216 217 215 232 228 222 243 259 245 235 239 249 235 250 237 320 239 225 235 251 233 224 230 235 256 278 224 217 225 232 236 246 191 140 202 233 175 200 208
294 296 255 235 225 212 217 208 212 206 218 218 218 219 219 221 222 220 237 232 236 245 266 272 260 249 241 234 248 236 251 260 294 351 279 252 246 200 232 253 218 232 228 222 202 221 169 180 201 216 195 154 224 192
296 281 234 228 221 214 220 203 198 207 225 221 221 224 226 227 227 224 230 222 227 253 270 257 256 253 242 236 234 241 246 246 248 244 266 258 257 189 224 256 238 222 201 220 190 210 208 196 239 205 184 210 191 173
298 277 219 243 207 204 203 205 202 220 225 226 230 232 234 236 236 235 234 238 228 264 264 276 267 247 249 239 233 229 244 250 254 251 246 251 254 244 228 227 246 210 165 209 248 222 209 212 196 189 195 192 137 154
297 263 242 227 201 189 194 211 217 223 227 232 237 239 241 240 241 245 249 247 231 229 275 285 297 271 264 240 231 233 233 237 235 244 236 247 246 239 236 214 228 206 195 198 217 187 198 213 181 118 164 165 156 147
295 290 230 234 208 192 207 221 218 223 229 236 241 243 241 237 242 240 269 249 239 226 254 253 255 266 248 233 233 234 232 234 235 230 238 235 246 233 224 206 233 219 207 200 190 175 255 198 172 168 162 152 158 155
293 294 239 216 219 214 213 217 224 230 235 242 243 242 240 239 231 201 210 179 83 229 263 272 258 249 257 246 243 241 244 233 238 234 229 236 260 213 238 235 220 208 202 194 191 154 176 229 181 159 132 127 111 104
281 285 258 224 216 218 217 223 228 235 241 240 240 241 247 247 247 246 249 257 273 272 228 240 261 288 186 242 248 189 219 189 202 263 222 202 237 231 246 208 215 237 182 181 174 187 192 160 129 130 133 135 133 132
268 274 258 237 227 223 222 225 230 236 235 239 251 262 254 222 222 232 250 256 244 215 252 235 244 276 6 347 337 289 184 178 207 233 210 230 181 209 273 180 197 187 187 176 156 153 137 144 147 143 142 139 134 132
261 262 256 246 237 231 226 228 230 233 235 248 231 169 225 215 224 269 248 233 211 203 218 249 196 253 291 344 287 289 234 200 214 228 267 227 260 234 217 229 162 171 162 152 128 117 128 139 144 152 155 150 147 144
255 252 251 242 243 234 228 226 221 224 211 180 194 209 220 201 218 230 222 214 200 232 214 237 225 243 211 232 245 226 252 207 253 220 232 229 250 211 202 200 172 158 146 116 101 98 154 156 149 133 112 121 132 136
252 245 245 244 241 239 231 221 214 200 192 189 246 175 151 197 207 236 235 237 219 227 217 241 230 211 233 205 218 255 246 224 254 87 253 248 254 222 176 186 159 151 134 111 106 106 108 127 128 124 118 125 141 134
250 240 240 241 240 240 230 218 216 220 226 256 205 159 179 209 221 213 222 204 239 240 261 271 266 230 175 210 240 236 225 232 285 250 247 239 230 70 143 122 117 123 124 119 114 118 113 97 88 124 126 124 121 113
246 236 237 238 237 237 230 224 218 205 184 243 168 190 217 208 228 211 208 256 248 279 294 302 277 228 207 236 227 196 258 207 29 285 249 224 206 120 107 118 116 146 131 126 140 139 147 142 124 124 131 124 127 132
240 236 237 239 238 234 217 211 201 196 209 247 192 203 215 232 255 247 250 269 259 271 275 272 234 210 207 248 234 182 199 254 223 228 248 116 148 130 135 130 140 131 111 114 129 129 125 123 118 113 123 131 132 133
230 238 239 231 226 210 210 199 201 181 245 232 234 247 217 272 281 211 241 271 17 330 305 226 243 199 220 193 158 226 170 221 245 225 273 335 135 114 130 133 129 121 118 116 116 125 122 124 130 122 121 128 133 136
228 223 239 209 202 194 201 175 176 200 228 216 228 231 252 295 265 233 192 209 192 346 339 296 253 219 92 58 235 209 221 232 255 283 262 7 110 124 116 118 119 119 116 117 116 115 112 117 121 117 112 125 132 135
229 233 220 199 188 184 190 208 186 221 209 221 212 230 215 217 248 272 268 216 118 56 296 287 304 248 202 199 214 233 233 267 311 293 355 54 98 101 112 120 117 118 117 117 117 119 122 122 120 122 130 138 129 128
236 224 216 200 180 159 175 180 201 240 218 193 215 249 239 247 229 231 257 254 254 156 262 247 249 235 232 228 253 302 306 198 142 342 50 56 87 111 109 103 105 108 113 120 125 127 129 131 135 140 143 143 127 134
231 224 212 190 181 169 203 209 179 233 225 214 188 194 227 220 240 207 236 238 199 175 239 251 255 252 249 304 274 218 190 156 142 88 42 30 55 99 106 115 112 114 104 99 99 109 108 108 133 140 142 140 137 154
232 244 231 203 192 219 207 176 197 214 169 189 182 213 248 267 247 219 249 197 207 211 236 238 265 289 281 261 250 255 121 119 103 115 139 109 76 104 104 107 111 115 112 119 119 95 119 127 142 140 134 126 118 118
214 173 128 147 147 179 232 191 204 159 165 192 172 182 252 247 227 217 204 201 226 232 213 242 248 263 257 99 57 81 105 98 89 89 90 91 115 110 113 119 116 118 126 131 133 130 125 134 135 134 127 121 118 108
138 130 124 147 158 160 216 166 168 171 169 200 128 198 239 238 233 137 241 232 259 238 240 273 273 280 121 72 90 74 71 107 99 92 86 77 75 90 92 91 118 116 106 89 133 129 131 139 137 131 122 113 112 103
136 120 152 156 151 197 175 174 166 138 162 178 184 207 218 217 171 249 251 236 245 294 241 225 232 135 69 41 53 64 62 108 96 74 85 99 86 48 92 97 105 111 124 131 127 126 130 130 128 125 132 138 145 164
113 182 133 146 205 157 117 148 163 173 204 203 207 219 222 180 231 244 261 257 305 335 340 348 354 310 105 99 80 69 69 117 110 94 44 101 105 88 76 87 94 104 132 125 123 128 130 137 141 140 146 148 160 174
165 186 171 175 160 157 174 154 173 198 180 220 194 196 215 204 241 257 269 338 314 331 322 32 225 104 65 48 105 90 54 103 104 85 47 89 114 118 109 99 71 40 97 131 140 137 146 148 148 156 167 171 173 168
171 185 189 216 155 137 114 99 146 154 172 195 196 168 113 259 255 300 325 323 352 356 26 15 315 95 102 91 74 76 93 101 98 102 97 95 106 119 137 151 146 146 115 111 121 141 146 154 157 153 145 156 248 256
193 172 165 166 137 155 133 129 176 204 214 198 133 187 190 185 201 322 344 348 79 77 69 55 68 88 85 84 92 99 98 108 110 106 97 85 88 97 108 114 116 117 117 117 119 119 116 113 116 264 267 270 278 288
156 164 102 77 83 120 182 168 200 226 159 157 153 158 139 68 21 333 310 307 131 91 71 72 63 90 89 92 96 99 114 134 124 106 100 112 81 51 84 96 96 93 93 92 78 72 72 81 66 336 310 319 306 271
110 102 96 102 132 171 221 211 116 83 55 103 112 115 73 12 356 17 13 115 75 62 70 70 60 93 102 108 103 76 66 68 77 115 142 147 136 137 117 99 89 89 87 80 77 75 68 65 65 68 86 178 206 199
118 110 108 106 122 112 70 66 54 58 33 42 32 62 113 132 359 27 24 60 96 102 98 80 76 90 95 82 94 109 89 64 77 88 103 113 117 114 110 99 92 93 104 109 96 90 99 100 107 137 142 146 154 158
41 109 131 119 117 126 119 89 109 90 79 92 83 78 113 116 81 24 9 47 81 81 77 89 97 88 98 97 94 95 103 100 91 90 98 105 105 104 111 108 97 88 89 125 160 168 163 163 161 162 159 157 153 150
91 75 78 100 115 130 127 92 55 71 36 54 46 34 50 59 77 9 34 67 94 103 96 101 98 98 99 100 105 103 97 89 85 82 81 97 117 122 121 114 120 126 139 147 161 174 187 179 178 166 149 139 137 137